Regional Weather Roundup
Issued by NWS Green Bay, WI

Home | Current Version | Previous Version | Graphics & Text | Print | Product List | Glossary Off
Versions: 1 2 3 4 5 6 7 8 9 10 11 12 13 14 15 16 17 18 19 20 21 22 23 24 25 26 27 28 29 30 31 32 33 34 35 36 37 38 39 40 41 42 43 44 45 46 47 48 49 50

000
ASUS43 KGRB 242300
RWRGRB

NORTH-CENTRAL AND NORTHEAST WISCONSIN REGIONAL WEATHER ROUNDUP
NATIONAL WEATHER SERVICE GREEN BAY WI
500 PM CST FRI FEB 24 2017

WIZ005-009-010>012-018-019-250000-
NORTH CENTRAL WISCONSIN

CITY           SKY/WX    TMP DP  RH WIND       PRES   REMARKS
IRONWOOD       SNOW      18  14  84 N10       29.80S VSB 1/2 WCI   6
MANITOWISH WTR NOT AVBL
ARBOR VITAE    NOT AVBL
EAGLE RIVER    NOT AVBL
LAND O LAKES   NOT AVBL
RHINELANDER    LGT SNOW  20  15  81 N10G18    29.66S WCI   9
PHILLIPS       NOT AVBL
ANTIGO         NOT AVBL
TOMAHAWK       NOT AVBL
MERRILL        NOT AVBL
$$

WIZ013-073-250000-
NORTHEAST WISCONSIN

CITY           SKY/WX    TMP DP  RH WIND       PRES   REMARKS
IRON MOUNTAIN  FRZ RAIN  22  16  78 N18       29.65S WCI   7
MARINETTE      MIX PCPN  25  23  92 N14G20    29.62S FOG
$$

WIZ017-030-035>037-045-250000-
CENTRAL WISCONSIN

CITY           SKY/WX    TMP DP  RH WIND       PRES   REMARKS
MEDFORD        NOT AVBL
WAUSAU         CLOUDY    23  17  78 N10G26    29.63S
MOSINEE        CLOUDY    25  19  80 N14G23    29.63F
MARSHFIELD     FLURRIES  24  17  74 N14       29.63R
WISC RAPIDS    LGT SNOW  26  22  84 N12       29.64R FOG
STEVENS POINT  NOT AVBL
WAUPACA        NOT AVBL
SHAWANO        CLOUDY    28  25  88 N10       29.63R FOG
CLINTONVILLE   NOT AVBL
WAUTOMA        CLOUDY    26  24  92 N12G18    29.61R FOG
$$

WIZ038-039-048-051-250000-
FOX VALLEY

CITY           SKY/WX    TMP DP  RH WIND       PRES   REMARKS
NWS GREEN BAY  FRZ RAIN  27  26  96 N21G28    29.59R FOG
APPLETON       CLOUDY    27  25  93 N20G26    29.56S
OSHKOSH        FRZ RAIN  28  25  88 N21       29.56F FOG
FOND DU LAC    MIX PCPN  29  25  85 N17G25    29.56S FOG
$$

WIZ022-050-052-250000-
EAST CENTRAL WISCONSIN

CITY           SKY/WX    TMP DP  RH WIND       PRES   REMARKS
EPHRAIM        NOT AVBL
WASHINGTON ISL NOT AVBL
STURGEON BAY   MIX PCPN  27  25  92 MISG      29.57F FOG
MANITOWOC      MIX PCPN  30  28  93 N15G21    29.53F FOG
SHEBOYGAN      CLOUDY    30  27  88 N10G20    29.51S FOG
$$

LMZ563-521-522-541>543-250000-
LAKESHORE

STATION/POSITION TIME  TEMP    WIND        PRES    VSBY  WAVE
                       AIR SEA DIR/SP/G                  HT/PER
                 (UTC) (F)     (DEG/KT/KT) (MB)    (MI)  (FT/S)
SHEBOYGAN LKSHOR 2200   34      10/ 28/ 31  999.6R
KEWAUNEE LKSHORE 2230   29      10/ 11/ 18 1000.2F
NORTHPORT PIER   2240   28      10/  3/  4 1003.0S
SISTER BAY LKSHO 2235   27        CALM       N/A
MENOMINEE LKSHOR 2230   26     350/ 17/ 25 1001.9F
$$



USA.gov is the U.S. government's official web portal to all federal, state and local government web resources and services.